Domov               UVHVVR             MKGP            O straneh              
ZDRAVSTVENO VARSTVO RASTLIN
  MREŽA AGROMET. POSTAJ
 ► PROGNOSTIČNA OBVESTILA
AGROMETEOROLOŠKI PODATKI -
ARSO
OBVLADOVANJE TVEGANJ ZARADI
NEUGODNIH VREMENSKIH RAZMER
  ► NARAVNE NESREČE
  ► SUŠA/MOČA
  ► NAMAKANJE
  ► ŽLED (gozdarstvo)
KARTOGRAFSKI PRIKAZI
SPLETNE POVEZAVE
PROJEKTI IN PUBLIKACIJE

AGROMETEOROLOŠKA MREŽA: VREMENSKE POSTAJE IN FENOLOŠKA OPAZOVANJA

Pregled podatkov za lokacijo Labor, meteorološka postaja 42414

Pregled senzorjev na lokaciji

ID Ime Zadnja
vrednost
Datum
zadnje
spremembe
Tip
senzorja
2101 Omočenost lista (U) 0 U 26.3.2019 17:59 A730WET
2102 Padavine (mm) 0 mm 26.3.2019 17:59 Rain-O-Matic
2100 Relativna vlaga 2 m (% RH) 31,69 % RH 26.3.2019 18:00 50YA
2099 Temperatura 2 m (°C) 10,67 °C 26.3.2019 18:00 50YA

Pregled podatkov zadnjih 24 ur

Zap.
št.
Datum in čas Labor
Omočenost
lista
Padavine Relativna
vlaga
2
m
Temperatura
2
m
1 26.3.2019 17:30
2 26.3.2019 17:00 0 0 31,7 10,7
3 26.3.2019 16:30 0 0 30,2 11
4 26.3.2019 16:00 0 0 29,7 11,1
5 26.3.2019 15:30 0 0 31,2 11,5
6 26.3.2019 15:00 0 0 31,9 11,4
7 26.3.2019 14:30 0 0 31,9 11,4
8 26.3.2019 14:00 0 0 31,5 11,6
9 26.3.2019 13:30 0 0 33,2 11,8
10 26.3.2019 13:00 0 0 35,1 11,3
11 26.3.2019 12:30 0 0 34,3 11
12 26.3.2019 12:00 0 0 35,1 10,9
13 26.3.2019 11:30 0 0 34,8 10,1
14 26.3.2019 11:00 0 0 34,9 9,6
15 26.3.2019 10:30 0 0 35,3 9,3
16 26.3.2019 10:00 0 0 33,9 9
17 26.3.2019 09:30 0 0 34,5 8,6
18 26.3.2019 09:00 0 0 36,8 8,5
19 26.3.2019 08:30 0 0 37,1 8,3
20 26.3.2019 08:00 0 0 42,3 7,4
21 26.3.2019 07:30 0 0 47 6,5
22 26.3.2019 07:00 0 0 46,3 6,3
23 26.3.2019 06:30 0 0 43,1 6,3
24 26.3.2019 06:00 0 0 41,3 6,6
25 26.3.2019 05:30 0 0 42,8 6,5
26 26.3.2019 05:00 0 0 45,4 6,3
27 26.3.2019 04:30 0 0 49,3 6,1
28 26.3.2019 04:00 0 0 50,9 6,1
29 26.3.2019 03:30 0 0 50,4 6,2
30 26.3.2019 03:00 0 0 47,1 6,6
31 26.3.2019 02:30 0 0 45,9 6,6
32 26.3.2019 02:00 0 0 49,5 6,2
33 26.3.2019 01:30 0 0 56,2 5,7
34 26.3.2019 01:00 0 0 58,4 5,6
35 26.3.2019 00:30 0 0 66 4,8
36 26.3.2019 00:00 1 0 71,6 4,8
37 25.3.2019 23:30 10 0,2 77,6 4,6
38 25.3.2019 23:00 10 0,2 78,2 4,5
39 25.3.2019 22:30 10 0 73,8 5,2
40 25.3.2019 22:00 10 0 64,7 6,6
41 25.3.2019 21:30 2 0 58,1 8,5
42 25.3.2019 21:00 0 0 58 9,6
43 25.3.2019 20:30 0 0 54,2 11,3
44 25.3.2019 20:00 0 0 47,5 13,2
45 25.3.2019 19:30 0 0 47,4 13,1
46 25.3.2019 19:00 0 0 47,3 13,4
47 25.3.2019 18:30 0 0 44,5 14,2
48 25.3.2019 18:00 0 0 35,2 15,5
© 2011 Ministrstvo za kmetijstvo, gozdarstvo in prehrano. Vse pravice pridržane.